User: anonymous   Login
Location: Unspecified
(0.0000°N, 0.0000°E)
Time: 02:55:17
(UTC+00:00)
Language:

GALILEO 8 (264) - Orbit

View from above orbital plane
View from above orbital plane
View from above satellite
View from above satellite

Ground track
Ground track

The orbit data is extracted from the following two-line orbital elements,

1 40545U 15017B   19054.27493634 -.00000048  00000-0  00000+0 0  9991
2 40545  56.0955  54.7521 0002935 260.2318  99.7492  1.70475321 24337
Epoch (UTC): 23 February 2019 06:35:54
Eccentricity: 0.0002935
inclination: 56.0955°
perigee height: 23213 km
apogee height: 23230 km
right ascension of ascending node: 54.7521°
argument of perigee: 260.2318°
revolutions per day: 1.70475321
mean anomaly at epoch: 99.7492°
orbit number at epoch: 2433

The dashed part of the orbit path shows where the satellite is in the earth's shadow,  

DLR